Location: *
(17.3280°S, 114.7300°W)
Time: 07:41:48
(UTC+00:00)

Lacrosse 5 rocket - Pass Details

Date: 05 August 2020
Orbit: 464 x 632 km, 57.0° (Epoch: 20 September)

Event Time Altitude Azimuth Distance (km) Brightness Sun altitude
Exits shadow 12:49:55 36° 237° (WSW) 908 1.9 -17.6°
Maximum altitude 12:51:26 60° 301° (WNW) 657 1.4 -17.3°
Drops below altitude 10° 12:55:44 10° 21° (NNE) 1,915 4.5 -16.3°
Sets 12:58:04 0° 24° (NNE) 2,835 5.5 -15.7°
